Regional Weather Roundup
Issued by NWS

Home | Current Version | Previous Version | Graphics & Text | Print | Product List | Glossary On
Versions: 1 2 3 4 5 6 7 8 9 10 11 12 13 14 15 16 17 18 19 20 21 22 23 24 25 26 27 28 29 30 31 32 33 34 35 36 37 38 39 40 41 42 43 44 45 46 47 48 49 50
511
ASUS45 KTFX 230410
RWRMT
MONTANA REGIONAL WEATHER ROUNDUP
NATIONAL WEATHER SERVICE GREAT FALLS MT
900 PM MST SUN JAN 22 2017

NOTE: "FAIR" INDICATES FEW OR NO CLOUDS BELOW 12000 FEET WITH NO
SIGNIFICANT WEATHER AND/OR OBSTRUCTIONS TO VISIBILITY.

MTZ001>007-043-230500-
WEST OF THE DIVIDE

CITY           SKY/WX    TMP DP  RH WIND       PRES   REMARKS
KALISPELL      CLOUDY    24  23  96 CALM      29.61S FOG
MISSOULA       LGT SNOW  29  28  96 SE6       29.62F FOG     WCI  23
BUTTE          CLOUDY    23  20  88 CALM      29.61S
MULLAN PASS    LGT SNOW  24  21  88 SE6       29.49F VSB 1   WCI  17
ANACONDA         N/A     28  19  69 S7        29.61S WCI  21
DEER LODGE       N/A     28  27  93 CALM      29.64S
EUREKA           N/A     25  21  86 SE3       29.65F
HAMILTON         N/A     28  27  93 CALM      29.61
RONAN            N/A     25  23  91 CALM      29.68S VSB 0
$$

MTZ008-052>055-230500-
SOUTHWEST MONTANA

CITY           SKY/WX    TMP DP  RH WIND       PRES   REMARKS
BOZEMAN        CLOUDY    25  19  78 S8        29.64F WCI  16
DILLON         CLOUDY   N/A N/A N/A CALM      29.63R
W YELLOWSTONE  LGT SNOW  23  23 100 CALM      29.66F
ENNIS          CLOUDY    32  19  59 S25G32    29.66S WCI  19
$$

MTZ009-010-012-014-046-048-049-054-230500-
EAST SLOPES AND CENTRAL MONTANA

CITY           SKY/WX    TMP DP  RH WIND       PRES   REMARKS
CUT BANK       CLOUDY    24  23  96 NE7       29.72S FOG     WCI  16
GREAT FALLS    FOG       24  23  96 N7        29.70S VSB 1/4 WCI  16
MALMSTROM AFB  FOG       24  24 100 NE8       29.72R VSB 3/8 WCI  15
HELENA         LGT SNOW  21  15  78 NW3       29.66F
AUGUSTA          N/A     20  20  99 NE12      29.68S WCI   9
BOWMANS CRNR   FOG       21  20  97 N10       29.66S VSB 3/8 WCI  10
CHOTEAU        FOG       23  23 100 NE7       29.73S VSB 1/4 WCI  15
CONRAD           N/A     23  23 100 NW5       29.77F VSB 0
POWER          FRZ RAIN  22  21  96 N10       29.70S VSB 3/8 WCI  11
RAYNESFORD     CLOUDY    26  24  89 E8        29.66S WCI  18
ULM            FOG       25  24  98 MISG      29.71R VSB 3/8
$$

MTZ011-013-016-021-045-047-050-051-230500-
NORTH CENTRAL MONTANA

CITY           SKY/WX    TMP DP  RH WIND       PRES   REMARKS
HAVRE          CLOUDY    27  26  96 NE7       29.77F WCI  19
LEWISTOWN      CLOUDY    24  20  84 E6        29.66F WCI  17
CHINOOK          N/A     28  25  86 CALM      29.79F
DENTON         FRZ RAIN  24  23  96 NE10      29.66F VSB 1/8 WCI  13
FORT BENTON      N/A     27  25  93 MISG      29.75F
GEYSER         FOG       24  23  96 E6        29.67F VSB 3/8 WCI  17
GRASS RANGE    FOG       24  23  99 E3        29.67F VSB 1/2
JUDITH GAP     CLOUDY    28  19  68 SE14G21   29.64F WCI  17
ROY            FOG       23  22  97 MISG      29.69F VSB 5/8
STANFORD       SNOW      21  21  98 N3        29.65F VSB 3/8
WINIFRED       FRZ RAIN  24  24  99 E10       29.68F VSB 5/8 WCI  13
$$

MTZ017>020-022>027-061-062-230500-
NORTHEAST MONTANA

CITY           SKY/WX    TMP DP  RH WIND       PRES   REMARKS
GLASGOW        CLOUDY    29  24  82 SW3       29.78F
JORDAN           N/A     28  24  85 SE6       29.78F WCI  22
SIDNEY         CLOUDY    27  23  85 S5        29.81F
WOLF POINT     CLOUDY    30  25  81 CALM      29.81S
PLENTYWOOD       N/A    N/A N/A N/A W5        29.77F
POPLAR           N/A     28  25  86 SW3       29.81F
$$

MTZ028>42-056>058-230500-
SOUTHCENTRAL AND SOUTHEAST MONTANA

CITY           SKY/WX    TMP DP  RH WIND       PRES   REMARKS
BAKER          CLOUDY    24  21  88 NW6       29.79F WCI  17
BILLINGS       PTCLDY    23  19  85 N7        29.68F WCI  15
LIVINGSTON     CLOUDY    30  18  60 E8        29.63F WCI  22
MILES CITY     CLOUDY    24  21  88 SE3       29.79F
BIG TIMBER     CLOUDY    28  19  69 S5        29.67S
FORSYTH          N/A     19  19 100 SE5       29.78S VSB 1/4
HARLOWTON      MOCLDY    24  20  83 E5        29.66F
LAUREL           N/A     26  15  63 CALM      29.70F
$$

REGIONAL REPORTS...DAKOTAS

CITY           SKY/WX    TMP DP  RH WIND       PRES   REMARKS
WILLISTON      CLOUDY    28  23  81 W6        29.80F WCI  22
MINOT          CLOUDY    31  26  82 W12       29.77S WCI  22
DICKINSON      CLOUDY    25  21  85 NW10      29.77F WCI  15
BEACH          CLOUDY    25  25 100 NW8       29.82F WCI  16
CROSBY         CLOUDY    25  23  93 NW13      29.80F WCI  13
TIOGA          CLOUDY    25  25 100 NW9       29.79S WCI  15
WATFORD CITY   CLOUDY    27  25  93 W6        29.80F WCI  20
BISMARCK       CLOUDY    32  26  78 W8        29.82F WCI  25
GRAND FORKS    CLOUDY    33  28  81 W10       29.77S WCI  25
FARGO          CLOUDY    35  30  82 W8        29.79S WCI  29
BUFFALO SD       N/A     20  17  88 CALM      29.74S
RAPID CITY     CLEAR     26  20  77 SE3       29.81F
$$

REGIONAL REPORTS...WYOMING/IDAHO/WASHINGTON

CITY           SKY/WX    TMP DP  RH WIND       PRES   REMARKS
GILLETTE       CLOUDY    29  19  66 S12       29.71F WCI  19
SHERIDAN       CLOUDY    21  16  81 SW9       29.70F WCI  11
BUFFALO WY     CLOUDY    26  15  63 NW10      29.68F WCI  16
CODY           CLOUDY    21  15  78 S3        29.67F
YELLOWSTONE LA   N/A     18  17  96 CALM      29.67F
IDAHO FALLS    LGT SNOW  29  27  92 CALM      29.70F FOG
SALMON         CLOUDY    18  16  93 CALM      29.67S
BOISE          MOCLDY    33  29  85 S5        29.65S
SPOKANE        LGT SNOW  33  32  96 SE7       29.58R FOG     WCI  27
$$

REGIONAL REPORTS...ALBERTA

CITY           SKY/WX    TMP DP  RH WIND       PRES   REMARKS
EDMONTON       CLOUDY    16   9  73 CALM      29.89S
CALGARY        LGT SNOW  21  19  93 E2        29.78R FOG
LETHBRIDGE     CLOUDY    25  23  93 NE7       29.79S FOG     WCI  17
MEDICINE HAT   CLOUDY    21  19  93 N6        29.81S FOG     WCI  14
WATERTON GATE    N/A     23  21  93 N3          N/A
CARDSTON         N/A     23  21  93 NE3         N/A
MILK RIVER       N/A     25  23  93 N6          N/A  WCI  18
$$

REGIONAL REPORTS...SASKATCHEWAN

CITY           SKY/WX    TMP DP  RH WIND       PRES   REMARKS
SWIFT CURRENT  CLOUDY    19  19 100 NW12      29.75F WCI   7
REGINA         FLURRIES  21  18  86 NW13      29.77S WCI   9
SASKATOON      FLURRIES  16  12  86 NW10      29.82S WCI   3
CYPRESS HILLS    N/A     16  14  93 N2          N/A
VAL MARIE        N/A     27  25  93 E3          N/A
ROCKGLEN         N/A     23  23 100 NW8         N/A  WCI  14
$$




USA.gov is the U.S. government's official web portal to all federal, state and local government web resources and services.